[[{"header":{"parameterUnit":"m.s-1","parameterCategory":1,"la1":30.2991,"la2":30.254,"lo1":-89.0895,"lo2":-89.0444,"dy":0.0017,"dx":0.0017,"nx":28,"ny":28,"refTime":"2025-08-01T03:00:00:Z","depth":0,"parameterNumber":2,"parameterNumberName":"U-component_of_WINDS"},"data":[0,0,0,0,0,0,0,0,0,0,0,0,0,0,0,0,0,0,0,0,0,0,0,0,0,0,0,0,0,0,0,0,0,0,0,0,0,0,0,0,0,0,0,0,0,0,0,0,0,0,0,0,0,0,0,0,0,0,-0.3528,-0.3529,0,-0.3682,-0.3683,-0.3685,-0.3764,-0.3764,-0.3764,-0.3764,-0.3923,-0.3928,-0.3932,0,0,0,0,0,0,0,0,0,0,0,0,0,-0.3303,-0.3306,-0.3527,-0.3529,-0.3531,-0.3681,-0.3683,-0.3686,-0.3764,-0.3764,-0.3764,-0.3764,-0.3922,-0.3927,-0.3932,0,0,0,0,0,0,0,0,0,0,0,0,0,-0.3423,-0.3308,-0.3527,-0.3589,-0.3596,-0.3681,-0.3683,-0.3686,-0.3764,-0.3764,-0.3764,-0.3764,-0.392,-0.3927,-0.3933,-0.3969,0,0,-0.3952,-0.3955,0,0,0,0,0,0,0,0,-0.3416,-0.3431,-0.3578,-0.3584,-0.3592,-0.3704,-0.3663,-0.3781,-0.3764,-0.37,-0.3764,-0.3764,-0.385,-0.3862,-0.3891,-0.3977,-0.3984,-0.3952,-0.3956,-0.3959,-0.3961,0,0,0,0,0,0,0,-0.3407,-0.3425,-0.3589,-0.358,-0.3589,-0.3609,-0.3626,-0.3685,-0.3773,-0.3706,-0.3712,-0.3729,-0.3854,-0.3885,-0.3895,-0.3986,-0.3952,-0.3958,-0.3962,-0.3964,-0.4108,-0.4108,0,0,0,0,0,0,-0.3389,-0.3417,-0.3584,-0.3593,-0.3503,-0.3613,-0.3632,-0.3668,-0.3772,-0.3788,-0.3728,-0.3732,-0.3874,-0.3888,-0.3901,-0.395,-0.3959,-0.3965,-0.3968,-0.4108,-0.4108,-0.4108,0,0,0,0,0,0,-0.3384,-0.3403,-0.3577,-0.3507,-0.3531,-0.3616,-0.3656,-0.3671,-0.3701,-0.379,-0.3806,-0.3743,-0.3875,-0.3893,-0.3951,-0.3957,-0.3968,-0.3973,-0.4108,-0.4108,-0.4108,-0.4049,0,0,0,0,0,0,-0.3377,-0.3401,-0.3416,-0.3507,-0.3534,-0.3625,-0.3657,-0.3674,-0.3712,-0.3718,-0.3808,-0.3823,-0.3876,-0.3942,-0.3958,-0.3966,-0.3978,-0.4108,-0.4108,-0.4108,-0.4051,-0.4047,-0.4043,0,0,0,0,0,-0.3369,-0.3394,-0.3416,-0.3436,-0.3554,-0.3625,-0.3641,-0.3701,-0.3712,-0.3728,-0.3784,-0.382,-0.3953,-0.3947,-0.3966,-0.3976,-0.4108,-0.4108,-0.4108,-0.4052,-0.4047,-0.4043,0,0,0,0,0,0,-0.3303,-0.3407,-0.3433,-0.3488,-0.3546,-0.3638,-0.366,-0.3694,-0.3752,-0.3755,-0.3828,-0.3848,-0.3899,-0.3944,-0.3935,-0.4016,-0.4034,-0.4038,-0.3985,-0.3982,-0.3978,-0.3967,-0.3983,0,0,0,0,0,-0.3294,-0.3342,-0.3431,-0.3471,-0.3499,-0.3573,-0.3607,-0.3648,-0.3712,-0.3738,-0.3799,-0.386,-0.3916,-0.3951,-0.4007,-0.4057,-0.4077,-0.4073,-0.4069,-0.4066,-0.4069,-0.4097,-0.4096,-0.4108,-0.4108,-0.4108,0,0,-0.3277,-0.334,-0.3366,-0.3459,-0.3509,-0.3558,-0.3594,-0.3644,-0.3681,-0.3746,-0.3805,-0.3851,-0.3924,-0.3978,-0.4005,-0.4017,-0.4069,-0.4066,-0.4063,-0.4068,-0.4097,-0.4095,-0.4094,-0.4108,-0.4108,-0.4108,0,0,-0.3272,-0.3324,-0.3363,-0.3412,-0.3487,-0.3537,-0.3545,-0.3632,-0.3665,-0.3725,-0.3774,-0.3818,-0.3913,-0.3963,-0.4,-0.4011,-0.4046,-0.4027,-0.4009,-0.4035,-0.4034,-0.4034,-0.4037,-0.4037,-0.4029,-0.4029,-0.4029,0,-0.3242,-0.3316,-0.3378,-0.3425,-0.3464,-0.3523,-0.3562,-0.3607,-0.3697,-0.3723,-0.3734,-0.3853,-0.3907,-0.3972,-0.3974,-0.4003,-0.4015,-0.4017,-0.4029,-0.4029,-0.403,-0.4034,-0.4035,-0.4026,-0.4026,-0.4027,-0.4027,0,-0.3276,-0.3326,-0.3348,-0.3432,-0.3473,-0.3516,-0.3584,-0.3619,-0.3655,-0.3703,-0.3763,-0.3829,-0.3899,-0.3917,-0.3954,-0.3988,-0.3992,-0.4015,-0.4035,-0.4025,-0.4029,-0.4031,-0.4022,-0.4023,-0.4024,-0.4025,0,0,-0.3235,-0.335,-0.3358,-0.3396,-0.3482,-0.3522,-0.3567,-0.3634,-0.3662,-0.3722,-0.3761,-0.3838,-0.386,-0.3902,-0.3945,-0.3968,-0.3971,-0.3989,-0.3991,-0.3983,-0.4011,-0.3993,-0.3994,-0.3994,-0.3995,-0.3995,-0.4005,0,-0.3242,-0.3324,-0.338,-0.3441,-0.3487,-0.3543,-0.3582,-0.3639,-0.3684,-0.3731,-0.3781,-0.3835,-0.3859,-0.3885,-0.391,-0.3965,-0.3978,-0.3965,-0.4031,-0.4033,-0.4011,-0.3996,-0.3978,-0.3984,-0.4007,-0.4007,-0.4008,0,-0.3261,-0.3317,-0.3382,-0.3461,-0.3483,-0.3517,-0.3582,-0.3626,-0.3691,-0.3723,-0.3768,-0.3812,-0.3861,-0.3875,-0.3944,-0.3934,-0.3964,-0.3994,-0.3996,-0.4005,-0.402,-0.4005,-0.3987,-0.3988,-0.4011,-0.4011,-0.4011,0,-0.3224,-0.3316,-0.3366,-0.3397,-0.3491,-0.3513,-0.3554,-0.3619,-0.3655,-0.3712,-0.3736,-0.3798,-0.3832,-0.3879,-0.3937,-0.3943,-0.3999,-0.4019,-0.4027,-0.4025,-0.4037,-0.4035,-0.4024,-0.4056,-0.4056,-0.4056,-0.4056,0,-0.3226,-0.3264,-0.335,-0.3381,-0.3424,-0.3488,-0.3529,-0.3574,-0.3631,-0.3672,-0.3724,-0.3761,-0.3835,-0.3881,-0.3927,-0.3976,-0.3991,-0.4018,-0.4029,-0.4013,-0.401,-0.4034,-0.4036,-0.4056,-0.4056,-0.4056,-0.4056,0,-0.3193,-0.3253,-0.3311,-0.3394,-0.3416,-0.3444,-0.3515,-0.3547,-0.3594,-0.3645,-0.366,-0.3735,-0.3791,-0.3853,-0.3931,-0.3962,-0.4008,-0.4025,-0.3986,-0.3992,-0.3996,-0.3995,-0.4,-0.4004,-0.4032,-0.4032,-0.4032,0,-0.3191,-0.322,-0.3306,-0.3336,-0.3374,-0.3422,-0.3459,-0.3522,-0.3558,-0.3633,-0.3656,-0.3716,-0.3767,-0.3855,-0.3916,-0.3975,-0.3994,-0.3991,-0.4003,-0.3985,-0.3993,-0.3991,-0.3994,-0.3988,-0.3988,-0.3987,-0.3987,0,-0.318,-0.3207,-0.3257,-0.3317,-0.3358,-0.3409,-0.3462,-0.3484,-0.3557,-0.3595,-0.3653,-0.3692,-0.377,-0.3829,-0.3895,-0.3937,-0.3974,-0.3982,-0.3987,-0.3971,-0.3947,-0.3959,-0.3976,-0.3982,-0.3983,-0.3983,-0.3983,-0.3983,-0.3162,-0.319,-0.3254,-0.3308,-0.3353,-0.3401,-0.3434,-0.3484,-0.3533,-0.3601,-0.3635,-0.3692,-0.3755,-0.3848,-0.3888,-0.3933,-0.3945,-0.3952,-0.3954,-0.3955,-0.395,-0.3939,-0.3946,-0.3946,-0.3946,-0.3946,-0.3947,0,-0.3154,-0.3196,-0.3245,-0.3316,-0.3358,-0.3387,-0.3446,-0.3479,-0.3529,-0.3584,-0.3633,-0.3698,-0.3755,-0.3819,-0.3879,-0.3903,-0.3921,-0.3917,-0.3916,-0.3925,-0.3937,-0.3926,-0.3901,-0.3901,-0.3901,-0.3901,-0.3901,-0.3901,-0.3154,-0.3203,-0.3237,-0.3309,-0.3352,-0.3407,-0.3438,-0.3482,-0.3526,-0.3596,-0.3643,-0.3684,-0.3743,-0.3808,-0.3861,-0.3878,-0.3898,-0.3888,-0.391,-0.392,-0.3924,-0.3928,-0.3918,-0.3892,-0.3892,-0.3895,-0.3895,-0.3895]},{"header":{"parameterUnit":"m.s-1","parameterCategory":1,"la1":30.2991,"la2":30.254,"lo1":-89.0895,"lo2":-89.0444,"dy":0.0017,"dx":0.0017,"nx":28,"ny":28,"refTime":"2025-08-01T03:00:00:Z","depth":0,"parameterNumber":3,"parameterNumberName":"V-component_of_WINDS"},"data":[0,0,0,0,0,0,0,0,0,0,0,0,0,0,0,0,0,0,0,0,0,0,0,0,0,0,0,0,0,0,0,0,0,0,0,0,0,0,0,0,0,0,0,0,0,0,0,0,0,0,0,0,0,0,0,0,0,0,0.2765,0.2768,0,0.3054,0.3057,0.3061,0.3153,0.3152,0.315,0.3149,0.3436,0.3444,0.3453,0,0,0,0,0,0,0,0,0,0,0,0,0,0.2278,0.2286,0.2764,0.2768,0.2772,0.3054,0.3057,0.3061,0.3153,0.3152,0.315,0.3149,0.3433,0.3443,0.3454,0,0,0,0,0,0,0,0,0,0,0,0,0,0.252,0.2289,0.2764,0.2852,0.2862,0.3053,0.3058,0.3062,0.3154,0.3152,0.315,0.3148,0.3429,0.3442,0.3455,0.3576,0,0,0.3496,0.3502,0,0,0,0,0,0,0,0,0.2506,0.2538,0.2835,0.2846,0.2858,0.3066,0.2991,0.3234,0.3154,0.3043,0.3149,0.3147,0.3313,0.3336,0.3394,0.359,0.3602,0.3497,0.3505,0.3511,0.3515,0,0,0,0,0,0,0,0.2489,0.2526,0.2879,0.2839,0.2853,0.2872,0.2905,0.3038,0.3185,0.3052,0.306,0.3093,0.3319,0.3381,0.3402,0.3606,0.3497,0.3508,0.3517,0.3522,0.3911,0.3913,0,0,0,0,0,0,0.2459,0.2511,0.2869,0.2887,0.2674,0.2883,0.2919,0.3001,0.3184,0.321,0.3095,0.3096,0.336,0.3386,0.3412,0.3566,0.3511,0.3523,0.3531,0.3909,0.3912,0.3914,0,0,0,0,0,0,0.2449,0.2491,0.2858,0.2702,0.275,0.2893,0.2984,0.3008,0.307,0.3216,0.3242,0.3132,0.3359,0.3394,0.3535,0.3577,0.3529,0.3541,0.3906,0.391,0.3913,0.3873,0,0,0,0,0,0,0.2434,0.2486,0.2537,0.2702,0.2758,0.298,0.2987,0.3015,0.3094,0.3099,0.3258,0.3282,0.336,0.3515,0.3548,0.3594,0.3551,0.3903,0.3908,0.3912,0.3871,0.3875,0.3878,0,0,0,0,0,0.2417,0.2513,0.2539,0.2582,0.2825,0.2982,0.3013,0.3104,0.3097,0.3147,0.324,0.3277,0.3566,0.3528,0.3567,0.3617,0.3901,0.3906,0.3912,0.387,0.3874,0.3878,0,0,0,0,0,0,0.2346,0.2536,0.2568,0.2721,0.2835,0.2997,0.3064,0.3106,0.3222,0.3222,0.3326,0.3361,0.3494,0.3569,0.3524,0.3742,0.3734,0.3748,0.3689,0.3695,0.3698,0.3678,0.3563,0,0,0,0,0,0.2349,0.2464,0.2622,0.2741,0.2797,0.292,0.2992,0.3052,0.3173,0.3221,0.3324,0.3437,0.3553,0.3627,0.3742,0.388,0.3915,0.3934,0.3937,0.3939,0.395,0.4027,0.4036,0.3932,0.3932,0.3932,0,0,0.2355,0.2473,0.2539,0.273,0.2826,0.2939,0.296,0.308,0.3164,0.3238,0.3379,0.3457,0.359,0.373,0.3797,0.3797,0.3986,0.3946,0.3946,0.3957,0.4033,0.4043,0.4052,0.3936,0.3935,0.3934,0,0,0.2426,0.2526,0.2637,0.2732,0.2877,0.2957,0.2983,0.3139,0.3195,0.3338,0.3395,0.3493,0.3691,0.3783,0.3856,0.3954,0.3992,0.3987,0.4006,0.4079,0.4088,0.4096,0.4131,0.4142,0.3997,0.3997,0.3997,0,0.2415,0.2593,0.2688,0.2805,0.2886,0.2958,0.3069,0.3155,0.3327,0.338,0.3377,0.3626,0.372,0.3882,0.3906,0.3961,0.3992,0.3972,0.4079,0.4088,0.4097,0.4131,0.4144,0.3996,0.3996,0.3996,0.3996,0,0.2571,0.2692,0.2763,0.2932,0.302,0.3132,0.3241,0.3317,0.3367,0.3446,0.3588,0.3703,0.3841,0.3883,0.3932,0.405,0.4046,0.406,0.4055,0.4104,0.4138,0.4152,0.3994,0.3995,0.3995,0.3995,0,0,0.2612,0.2829,0.2853,0.293,0.3092,0.3186,0.3297,0.3436,0.3499,0.3613,0.371,0.3873,0.3886,0.3968,0.4026,0.409,0.416,0.4097,0.4101,0.4105,0.4296,0.4287,0.4301,0.4184,0.4187,0.4189,0.4285,0,0.2704,0.2916,0.3002,0.317,0.3282,0.3349,0.3447,0.3554,0.3629,0.373,0.3811,0.3926,0.3934,0.3984,0.405,0.4138,0.42,0.4132,0.4273,0.4277,0.4241,0.4319,0.4311,0.4396,0.4299,0.4302,0.4303,0,0.2843,0.2961,0.3142,0.3288,0.3338,0.3425,0.3557,0.3654,0.3774,0.3824,0.3913,0.3967,0.4083,0.4067,0.4227,0.4178,0.4239,0.429,0.4295,0.4315,0.4296,0.4342,0.4426,0.4439,0.4325,0.4323,0.4322,0,0.2855,0.3059,0.3193,0.3256,0.3429,0.3489,0.3563,0.3682,0.3758,0.387,0.392,0.4043,0.4111,0.4202,0.4286,0.4267,0.4437,0.4429,0.448,0.4478,0.4517,0.4514,0.4614,0.4551,0.4551,0.4551,0.455,0,0.2952,0.306,0.3201,0.3284,0.3405,0.35,0.3615,0.3693,0.3797,0.3893,0.3955,0.4043,0.4148,0.4247,0.4312,0.4434,0.4463,0.4504,0.4521,0.4501,0.4496,0.4545,0.4542,0.4554,0.4553,0.4553,0.4552,0,0.299,0.3089,0.324,0.3391,0.343,0.3513,0.364,0.372,0.3795,0.3915,0.3949,0.4066,0.4186,0.4278,0.4432,0.4476,0.4605,0.4621,0.4566,0.4575,0.4622,0.4617,0.4759,0.4783,0.4701,0.4702,0.4703,0,0.3047,0.3132,0.3292,0.3362,0.3437,0.3548,0.3627,0.3719,0.3797,0.3938,0.4001,0.4125,0.4231,0.4417,0.4514,0.4631,0.4652,0.4693,0.467,0.4646,0.4654,0.465,0.4658,0.4698,0.4698,0.4698,0.4699,0,0.3138,0.3182,0.3295,0.3423,0.3515,0.362,0.3725,0.3778,0.3889,0.3972,0.4097,0.4178,0.4335,0.4457,0.4584,0.4655,0.4695,0.4704,0.4723,0.4705,0.467,0.469,0.4576,0.4702,0.4702,0.4701,0.4701,0.4701,0.319,0.3268,0.3392,0.3514,0.3603,0.3699,0.3781,0.3867,0.3973,0.4112,0.4158,0.4285,0.4398,0.4573,0.4644,0.4742,0.4744,0.477,0.4777,0.4783,0.4782,0.4651,0.4765,0.4765,0.4765,0.4765,0.4765,0,0.3286,0.3368,0.3479,0.3626,0.372,0.3749,0.3866,0.3942,0.4055,0.4158,0.426,0.44,0.4517,0.4621,0.4742,0.48,0.4821,0.4828,0.4827,0.4842,0.4773,0.4746,0.4809,0.4809,0.4809,0.4809,0.4809,0.4809,0.3347,0.3481,0.3538,0.3714,0.3794,0.3923,0.3987,0.4073,0.4156,0.4312,0.4411,0.4478,0.458,0.4707,0.4814,0.4841,0.4883,0.4887,0.4918,0.4853,0.4847,0.4842,0.4817,0.4894,0.4894,0.4979,0.498,0.498]}]]